World > North America > United States > Texas

Hourly Newport, TX Regional Weather

Feedback E-mail the Weather

Quick WX

Newport, TX Weather Maps

°F °C°F °C
Newport Weather Map
UTC Time: 6/27/2022, 20:29
Your Time:

Newport, TX Regional Weather

Expires:202206272100;;292505
ASUS44 KFWD 272015
RWRTX 
NORTH TEXAS HOURLY WEATHER ROUNDUP
NATIONAL WEATHER SERVICE FORT WORTH TX
300 PM CDT MON JUN 27 2022

NOTE: "FAIR" INDICATES FEW OR NO CLOUDS BELOW 12,000 FEET WITH NO
SIGNIFICANT WEATHER AND/OR OBSTRUCTIONS TO VISIBILITY.


TXZ083>090-098>101-113>116-127>130-139>142-154-155-272100-
WESTERN NORTH TEXAS
  
CITY           SKY/WX    TMP DP  RH WIND       PRES   REMARKS
WICHITA FALLS  PTSUNNY   91  59  33 N9G18     30.19F HX  90           
WF-KICKAPOO    FAIR      89  60  37 N13G21    30.20F                  
VERNON         FAIR      87  50  28 NE5       30.23F                  
ABILENE        PTSUNNY   90  59  35 NE9G17    30.22F                  
ABILENE-DYESS  MOSUNNY  N/A N/A N/A E9          N/A                   
GRAHAM         FAIR      87  65  47 VRB7      30.18F                  
BRECKENRIDGE   FAIR      90  64  41 NE13      30.18F HX  91           
CISCO          FAIR      88  61  40 NE13      30.18F                  
EASTLAND       FAIR      88  64  44 NE12G20   30.19F                  
RANGER         FAIR      89  63  42 NE10G16   30.19F                  
MINERAL WELLS  FAIR      87  64  46 N8G18     30.16F                  
STEPHENVILLE   FAIR      91  62  37 N6        30.19F HX  92           
COMANCHE       FAIR      93  64  38 N10G17    30.18F HX  95           
BROWNWOOD      FAIR      91  63  38 E8        30.16F HX  92           
COLEMAN        FAIR      92  60  33 NE13      30.18F HX  92           
SAN SABA       FAIR      95  64  35 NE8       30.14F HX  96           
$$


SKY/WX - Weather  TMP - Temperature  DP - Dew Point  RH - Humidity
WIND - Wind Direction/Speed PRES - Barometric Pressure VSB - Visibility
WCI - Wind Chill Index E13G22 Wind - East Wind 13 mph/Gusts of 22 mph

Trending Headlines

Newport Radar Loop



Newport Quick Facts


National Two Day Weather Forecast


E-mail the Newport Weather Forecast

Voice your opinion or tell us about page issues...